FW3755 Weather Reports


time (UTC)temp
F
wind
direction
speed
knots
gust
knots
rain 1hr
in
rain 24hr
in
rain mn
in
humidity
%
barometer
mb
20260505005933 62 112 0.0 0.0 0.00 0.00 0.00 54 1051.6
20260505004934 62 180 0.0 0.9 0.00 0.00 0.00 52 1051.5
20260505003935 63 337 0.0 0.0 0.00 0.00 0.00 50 1051.5
20260505002936 64 337 0.0 0.9 0.00 0.00 0.00 49 1051.5
20260505002834 64 337 0.0 1.7 0.00 0.00 0.00 48 1051.6
20260505001933 64 238 0.9 2.6 0.00 0.00 0.00 47 1051.5
20260505000933 65 171 0.9 2.6 0.00 0.00 0.00 45 1051.3
20260504235936 66 189 0.9 6.1 0.00 0.00 0.00 45 1051.3
20260504234935 67 197 0.0 0.9 0.00 0.00 0.00 44 1051.3
20260504233935 68 218 1.7 7.0 0.00 0.00 0.00 44 1051.3
20260504231933 68 20 0.0 0.0 0.00 0.00 0.00 43 1051.3
20260504231833 68 169 0.0 0.9 0.00 0.00 0.00 42 1051.4
20260504230835 68 217 0.0 2.6 0.00 0.00 0.00 41 1051.3
20260504225933 69 215 0.9 2.6 0.00 0.00 0.00 41 1051.3
20260504224934 69 130 0.9 2.6 0.00 0.00 0.00 39 1051.2
20260504224836 69 183 0.9 3.5 0.00 0.00 0.00 40 1051.1
20260504223837 70 43 0.9 2.6 0.00 0.00 0.00 39 1051.2
20260504223733 70 358 0.9 3.5 0.00 0.00 0.00 38 1051.1
20260504222737 72 57 1.7 3.5 0.00 0.00 0.00 36 1051.1
20260504221736 73 124 0.9 2.6 0.00 0.00 0.00 36 1051.1
20260504220833 75 136 1.7 7.8 0.00 0.00 0.00 34 1051.1
20260504220735 75 152 0.0 1.7 0.00 0.00 0.00 35 1051.1
20260504215834 75 189 0.0 0.9 0.00 0.00 0.00 33 1051.1
20260504214835 75 27 0.0 0.0 0.00 0.00 0.00 35 1051.0
20260504213834 75 89 0.0 1.7 0.00 0.00 0.00 35 1051.0
20260504212835 75 176 0.0 1.7 0.00 0.00 0.00 35 1051.0
20260504211933 74 327 0.0 1.7 0.00 0.00 0.00 33 1051.0
20260504210835 74 195 0.9 2.6 0.00 0.00 0.00 36 1051.1
20260504210735 74 226 3.5 6.1 0.00 0.00 0.00 36 1051.1
20260504205833 74 133 1.7 4.3 0.00 0.00 0.00 36 1050.9
20260504204834 74 129 1.7 5.2 0.00 0.00 0.00 35 1051.1
20260504203835 74 189 2.6 6.1 0.00 0.00 0.00 35 1051.3
20260504202833 74 142 1.7 4.3 0.00 0.00 0.00 33 1051.4
20260504201836 74 212 3.5 5.2 0.00 0.00 0.00 32 1051.4
20260504200834 74 178 0.9 4.3 0.00 0.00 0.00 33 1051.5
20260504200718 73 205 1.7 4.3 0.00 0.00 0.00 33 1051.5
20260504193734 72 221 4.3 7.0 0.00 0.00 0.00 34 1052.1
20260504192734 72 230 1.7 4.3 0.00 0.00 0.00 34 1052.2
20260504190736 72 232 4.3 7.0 0.00 0.00 0.00 34 1052.7
20260504185834 71 159 3.5 7.8 0.00 0.00 0.00 33 1052.7
20260504184834 71 223 5.2 9.6 0.00 0.00 0.00 34 1053.0
20260504183835 71 215 6.1 11.3 0.00 0.00 0.00 34 1053.1
20260504181834 72 231 3.5 7.0 0.00 0.00 0.00 34 1053.0
20260504181734 72 229 2.6 3.5 0.00 0.00 0.00 34 1053.1
20260504180733 71 186 1.7 2.6 0.00 0.00 0.00 35 1053.2
20260504174834 69 215 1.7 3.5 0.00 0.00 0.00 36 1053.6
20260504173835 69 217 3.5 7.0 0.00 0.00 0.00 36 1053.6
20260504172833 69 233 3.5 7.0 0.00 0.00 0.00 35 1053.9
20260504171932 70 210 6.1 11.3 0.00 0.00 0.00 34 1053.6
20260504170937 69 151 1.7 2.6 0.00 0.00 0.00 36 1054.0
20260504151033 64 204 2.6 6.1 0.00 0.00 0.00 39 1055.3
20260504141033 61 218 2.6 7.8 0.00 0.00 0.00 45 1055.7
20260504081536 35 202 0.0 0.0 0.00 0.00 0.00 87 1056.4
20260504044934 36 202 0.0 0.0 0.00 0.00 0.00 85 1056.7
20260504044833 36 202 0.0 0.0 0.00 0.00 0.00 84 1056.6
20260504043932 37 202 0.0 0.0 0.00 0.00 0.00 84 1056.7
20260504043832 37 202 0.0 0.0 0.00 0.00 0.00 84 1056.7
20260504042833 37 202 0.0 0.0 0.00 0.00 0.00 83 1056.8
20260504041834 37 202 0.0 0.0 0.00 0.00 0.00 83 1056.6
20260504040917 37 202 0.0 0.0 0.00 0.00 0.00 84 1056.5
20260504040833 37 202 0.0 0.0 0.00 0.00 0.00 84 1056.7
20260504035837 38 202 0.0 0.0 0.00 0.00 0.00 83 1056.6
20260504034838 38 202 0.0 0.0 0.00 0.00 0.00 83 1056.6
20260504033838 38 202 0.0 0.0 0.00 0.00 0.00 82 1056.4
20260504032936 38 202 0.0 0.0 0.00 0.00 0.00 81 1056.4
20260504031937 39 202 0.0 0.0 0.00 0.00 0.00 81 1056.2
20260504031836 39 202 0.0 0.0 0.00 0.00 0.00 81 1056.2
20260504030838 39 202 0.0 0.0 0.00 0.00 0.00 80 1056.3
20260504025938 39 202 0.0 0.0 0.00 0.00 0.00 79 1056.3
20260504025838 39 202 0.0 0.0 0.00 0.00 0.00 80 1056.3
20260504024838 40 202 0.0 0.0 0.00 0.00 0.00 78 1056.3
20260504024738 40 202 0.0 0.0 0.00 0.00 0.00 79 1056.2
20260504022739 41 202 0.0 0.0 0.00 0.00 0.00 76 1056.2
20260504015835 43 202 0.0 0.0 0.00 0.00 0.00 73 1056.3
20260504014837 43 202 0.0 0.0 0.00 0.00 0.00 71 1056.1
20260504013936 44 202 0.0 0.0 0.00 0.00 0.00 69 1056.2
20260504012838 45 202 0.0 0.0 0.00 0.00 0.00 67 1056.1
20260504011837 45 202 0.0 0.0 0.00 0.00 0.00 64 1056.0
20260504010837 46 202 0.0 0.9 0.00 0.00 0.00 63 1055.9